Location: Bathurst
(33.4193°S, 149.5775°E)
Time: 23:54:12
(UTC+10:00)

N. Korean satellite - Visible Passes

Search period start: 26 May 2018 00:00
Search period end: 05 June 2018 00:00
Orbit: 458 x 513 km, 97.2° (Epoch: 25 May)

Date Brightness Start Highest point End Pass type
(mag) Time Alt. Az. Time Alt. Az. Time Alt. Az.
26 May 7.0 06:12:42 10° N 06:16:19 47° W 06:20:01 10° SSW visible
26 May 8.1 17:44:47 10° SE 17:47:20 18° E 17:49:51 10° NE visible
26 May 9.1 19:19:07 15° SW 19:20:42 20° WSW 19:23:21 10° WNW visible
27 May 6.8 05:48:33 10° NNE 05:52:19 78° ESE 05:56:08 10° S visible
27 May 7.8 18:54:56 22° SSW 18:56:50 41° WSW 19:00:10 10° NW visible
28 May 8.3 05:24:56 10° NE 05:28:23 35° ESE 05:31:53 10° S visible
28 May 6.4 18:30:45 24° SSE 18:32:52 84° E 18:36:23 10° N visible
29 May 9.5 05:01:57 10° ENE 05:04:32 18° ESE 05:07:07 10° SSE visible
29 May 7.1 18:06:33 17° SE 18:08:49 35° E 18:12:03 10° NNE visible
29 May 9.8 19:41:12 10° WSW 19:41:52 10° WSW 19:42:30 10° WSW visible
30 May 6.9 06:10:02 10° N 06:13:42 50° W 06:17:25 10° SSW visible
30 May 8.2 17:42:21 10° SE 17:44:40 17° E 17:46:59 10° NE visible
30 May 9.0 19:16:44 17° SW 19:18:03 21° WSW 19:20:45 10° WNW visible
31 May 6.9 05:45:56 10° NNE 05:49:41 72° ESE 05:53:30 10° S visible
31 May 7.6 18:52:31 26° SSW 18:54:09 44° WSW 18:57:31 10° NNW visible
01 Jun 8.4 05:22:21 10° NE 05:25:45 32° ESE 05:29:11 10° S visible
01 Jun 6.4 18:28:17 26° SSE 18:30:10 77° ENE 18:33:40 10° N visible
02 Jun 9.5 04:59:28 10° ENE 05:01:54 17° ESE 05:04:20 10° SSE visible
02 Jun 7.8 06:31:57 10° NNW 06:35:07 25° W 06:38:19 10° SW visible
02 Jun 7.2 18:04:03 18° SE 18:06:06 32° E 18:09:15 10° NNE visible
02 Jun 9.7 19:38:26 10° SW 19:39:11 11° WSW 19:40:12 10° W visible
03 Jun 6.8 06:07:20 10° N 06:11:02 55° W 06:14:46 10° SSW visible
03 Jun 8.3 17:39:49 10° ESE 17:41:56 15° E 17:44:03 10° NE visible
03 Jun 8.9 19:14:12 19° SW 19:15:21 22° WSW 19:18:07 10° NW visible
04 Jun 7.1 05:43:17 10° NNE 05:47:01 66° ESE 05:50:47 10° S visible
04 Jun 7.4 18:49:57 28° SSW 18:51:27 48° WSW 18:54:47 10° NNW visible
